Wind_Speed
27 26 26 25 25 25 25 24 22 21 20 20 19 18 16 15 16 15 14 14 14 15 15 16 17 19 20 20 17 16 14 13 11 10 8 7 7 6 6 5 5 5
29 28 27 27 26 26 26 25 23 22 21 20 19 18 18 18 17 16 15 15 15 16 17 17 18 19 20 21 20 18 17 15 14 12 10 9 8 7 6 5 4 3
31 30 29 28 27 26 25 25 24 23 22 21 20 20 20 19 19 17 16 16 17 17 18 19 19 19 19 20 21 21 20 18 16 15 14 12 11 9 8 7 5 3
32 31 30 29 28 26 26 26 25 24 23 22 21 20 21 20 20 19 17 17 18 18 19 20 20 20 20 20 21 22 22 20 19 18 17 15 14 12 11 10 8 6
32 31 30 29 28 27 27 27 26 25 24 22 21 21 21 21 21 20 18 18 18 18 19 20 20 21 21 21 21 21 22 22 22 20 19 17 16 15 14 12 11 9
33 32 31 30 29 29 29 28 27 26 25 23 22 22 22 22 21 21 19 17 17 18 18 19 19 20 21 21 21 22 22 23 23 23 21 20 18 17 17 15 14 12
34 33 32 31 31 30 30 29 28 27 26 25 24 23 22 22 21 20 19 17 17 18 18 18 18 19 20 20 21 21 22 23 24 24 23 22 22 20 19 18 16 15
35 34 33 32 32 32 31 30 29 28 27 26 25 23 23 22 21 20 20 19 18 18 18 18 18 19 20 20 20 20 21 23 24 25 24 24 24 23 22 20 19 18
35 34 34 33 32 32 31 30 30 29 28 27 26 24 24 23 22 21 21 20 20 19 18 18 18 19 19 20 19 19 20 22 23 24 24 25 25 24 24 24 23 21
35 35 34 33 33 32 31 31 30 30 29 28 27 26 25 24 23 23 22 22 22 20 19 19 18 18 18 18 18 18 19 20 21 23 24 25 25 25 26 26 25 24
35 35 35 33 32 32 31 31 31 30 30 29 28 27 26 25 24 24 24 24 23 21 20 19 18 17 17 17 16 16 17 17 19 21 22 23 24 25 26 27 27 25
34 34 34 33 32 31 31 31 31 30 30 29 28 28 27 26 25 25 25 24 23 22 21 19 18 17 17 16 15 15 15 16 17 18 20 21 22 24 25 26 26 25
33 32 32 31 30 30 30 30 30 30 29 29 28 28 27 27 26 25 24 23 22 22 21 19 19 18 17 17 16 16 15 15 15 16 17 19 20 21 23 24 25 24
29 30 30 30 30 30 30 30 30 30 29 28 28 28 28 27 26 25 24 23 22 21 21 20 20 20 19 17 16 15 15 14 14 14 15 16 17 19 20 22 22 23
27 28 29 30 30 30 29 29 29 29 29 29 28 28 27 27 26 25 24 23 22 21 20 21 21 20 18 17 16 15 14 13 13 13 13 14 15 16 18 20 21 21
26 27 28 29 29 28 28 28 28 29 28 28 28 28 27 26 25 25 24 23 21 20 20 21 20 19 17 16 15 15 14 14 13 13 13 14 14 16 17 18 18 18
26 27 27 28 27 27 27 27 27 27 27 27 27 27 26 25 25 25 24 22 21 20 20 20 19 17 16 16 15 15 15 15 15 14 14 15 15 16 16 17 17 17
25 26 27 27 27 27 27 27 27 27 26 26 26 25 25 25 25 24 23 22 22 21 21 20 19 17 16 16 16 16 16 16 16 16 16 16 16 17 17 17 17 17
24 25 26 27 28 28 28 28 28 27 27 26 26 26 26 26 25 24 24 23 23 22 21 20 19 17 17 17 17 17 17 17 18 18 18 18 18 18 18 18 18 19
26 26 25 26 27 28 29 29 29 28 27 27 27 27 27 27 26 25 24 24 23 22 21 20 19 18 18 17 17 17 17 18 19 20 21 21 20 19 19 18 18 18
30 29 28 27 27 27 29 30 29 28 28 27 27 27 27 26 26 25 25 24 23 22 21 20 19 18 18 18 17 17 18 19 20 21 22 21 19 18 17 16 15 16
32 31 31 30 29 28 28 28 28 28 27 27 27 27 26 26 25 24 24 23 23 22 21 20 18 17 18 18 18 18 19 20 20 20 19 18 16 15 15 14 15 16
31 32 33 33 32 31 30 28 27 27 27 27 27 26 26 25 24 23 22 22 22 22 21 19 17 17 18 18 18 18 19 19 19 18 18 17 16 16 16 17 17 18
28 30 32 34 35 34 32 30 28 27 27 27 27 26 25 24 23 22 22 22 22 21 20 18 18 19 18 18 18 18 18 18 18 19 19 19 19 19 19 20 20 21
24 26 29 32 36 36 36 34 31 29 28 27 26 26 25 24 23 23 23 23 22 21 20 19 19 19 18 17 17 19 19 19 20 21 22 22 21 22 22 23 24 24
21 23 26 29 33 35 36 37 35 32 30 28 27 26 25 25 24 24 24 24 23 22 21 20 19 18 18 18 18 19 20 21 22 24 24 24 24 25 26 26 26 26
Wind_Direction
201 202 203 207 209 213 215 215 214 211 209 212 218 225 230 232 233 232 229 225 220 215 211 206 202 203 206 209 208 205 204 203 201 194 184 173 157 146 137 126 113 99
202 202 202 205 208 212 215 217 217 214 210 210 212 218 224 230 233 232 230 227 222 218 215 212 208 206 207 210 212 212 212 211 210 207 202 197 190 179 171 161 146 130
203 203 203 204 207 211 215 218 220 218 213 210 209 212 217 224 230 231 229 227 224 219 216 215 212 211 210 211 212 214 215 216 216 215 211 209 207 203 199 192 188 188
205 204 204 204 206 209 213 217 220 220 217 213 211 211 215 219 226 230 228 226 224 221 218 216 215 214 213 213 214 214 216 219 220 219 216 214 213 213 213 210 207 210
207 206 205 205 206 208 212 216 219 221 220 216 214 214 215 218 224 230 230 226 226 225 222 219 218 217 216 216 216 215 216 220 223 224 221 220 219 219 221 221 218 219
207 207 206 206 207 208 212 215 218 220 220 218 216 216 217 219 223 230 233 229 227 229 228 224 222 220 219 219 218 217 217 219 223 226 226 226 227 226 226 227 225 225
208 207 207 207 207 210 212 215 217 219 220 219 217 216 217 220 224 230 235 235 231 230 231 229 226 224 224 223 221 220 220 220 223 226 228 229 231 231 231 231 230 230
210 208 208 208 209 211 213 214 216 218 220 220 219 217 218 220 224 228 234 237 236 234 231 230 228 226 226 226 224 222 221 223 225 227 229 231 233 235 236 237 238 236
211 210 210 210 210 213 214 215 217 218 220 221 220 219 219 220 222 225 230 233 236 236 233 231 230 228 227 227 225 223 222 223 225 227 229 231 233 235 238 240 241 240
212 211 212 212 212 214 214 215 218 219 220 221 221 220 220 220 221 223 227 230 233 235 234 233 232 230 230 229 226 226 225 225 226 228 230 231 232 234 236 240 241 242
212 212 213 214 214 215 215 216 218 219 221 222 222 222 222 221 222 223 225 229 231 234 236 235 234 234 235 234 232 231 230 228 228 228 229 231 232 232 234 237 240 242
212 212 213 215 215 216 216 217 218 220 222 223 224 225 225 224 225 225 226 228 231 234 237 236 235 234 235 236 236 236 235 232 230 228 228 229 230 231 232 235 238 241
211 212 214 215 216 217 217 218 220 222 223 225 226 227 228 228 228 228 229 229 230 231 234 234 233 233 233 233 234 235 236 236 235 232 229 228 229 231 232 234 236 238
212 213 215 216 217 217 218 218 220 223 224 226 227 228 230 231 232 232 231 231 230 229 229 229 229 230 231 232 233 234 236 237 238 238 235 232 231 231 233 234 235 236
213 215 216 217 218 218 219 220 221 223 225 226 228 230 231 232 233 233 233 231 230 228 227 226 227 227 228 231 234 237 239 240 241 243 242 239 235 233 233 233 234 235
215 216 217 218 219 220 221 222 223 225 227 228 231 232 232 232 232 232 233 232 230 229 227 227 227 226 226 228 231 234 238 240 242 244 244 243 240 236 234 234 234 235
216 218 219 220 221 221 222 224 225 226 228 230 232 233 233 232 232 232 232 232 231 230 230 230 230 228 226 226 228 230 234 238 241 243 244 244 242 241 239 239 240 240
218 219 221 221 222 222 224 225 226 227 228 230 232 233 234 233 233 233 232 232 231 231 232 233 233 231 228 227 227 229 232 238 242 244 245 244 243 243 243 244 245 246
219 220 221 222 222 223 224 225 227 228 229 230 232 233 234 235 236 236 235 234 234 233 233 235 234 233 231 229 229 230 234 240 245 248 249 247 245 245 245 245 247 250
221 222 221 221 222 222 224 225 227 228 229 230 231 233 234 237 238 239 238 237 236 236 236 235 234 231 231 231 231 233 237 242 247 250 249 247 246 246 245 244 246 250
225 225 225 224 223 222 223 224 225 227 228 229 231 232 234 236 238 239 239 238 238 237 236 235 232 229 230 232 233 235 239 242 244 245 245 245 245 245 244 244 245 250
226 228 228 228 227 226 225 225 225 226 227 229 231 232 233 234 235 237 237 237 236 234 234 232 229 226 226 224 224 227 230 233 236 238 240 240 241 244 247 250 253 259
225 227 229 230 230 229 228 226 226 226 227 229 231 232 233 234 235 235 235 234 232 230 229 225 214 208 208 205 206 212 218 225 231 237 242 245 247 251 256 261 264 270
223 225 227 229 230 230 230 228 227 226 227 228 230 231 233 233 234 233 231 229 227 222 217 208 195 193 197 198 202 211 220 228 237 244 249 253 257 260 264 268 270 272
224 225 227 229 230 231 231 229 228 227 227 228 229 230 231 231 230 229 224 222 220 213 207 200 196 199 206 210 216 223 231 238 245 250 254 258 262 265 266 268 269 270
227 228 228 228 229 231 231 230 228 228 227 228 228 229 229 228 227 224 220 217 215 213 211 209 209 214 220 225 230 235 241 246 250 253 257 260 263 264 265 266 268 271
Height
3194 3196 3198 3201 3203 3205 3206 3207 3209 3211 3212 3214 3216 3217 3219 3220 3221 3222 3223 3224 3225 3226 3228 3229 3230 3231 3232 3233 3234 3234 3235 3235 3236 3237 3237 3238 3238 3239 3239 3239 3240 3240
3192 3194 3196 3198 3201 3203 3205 3206 3207 3209 3211 3212 3214 3216 3217 3218 3219 3220 3222 3223 3224 3225 3226 3227 3228 3229 3230 3232 3233 3234 3234 3235 3236 3236 3237 3237 3238 3238 3239 3239 3239 3240
3189 3191 3194 3196 3198 3201 3203 3205 3206 3207 3209 3210 3212 3214 3215 3217 3218 3219 3220 3221 3222 3223 3224 3225 3227 3228 3229 3230 3231 3232 3233 3234 3235 3236 3236 3237 3237 3238 3238 3239 3239 3240
3187 3189 3192 3194 3197 3199 3201 3203 3204 3206 3207 3209 3210 3212 3213 3215 3216 3217 3218 3219 3220 3222 3223 3224 3225 3226 3227 3229 3230 3231 3232 3233 3234 3234 3235 3236 3236 3237 3238 3238 3239 3239
3185 3187 3190 3192 3195 3197 3199 3201 3203 3204 3206 3207 3209 3210 3211 3213 3214 3215 3217 3218 3219 3220 3221 3222 3223 3225 3226 3227 3228 3229 3231 3232 3232 3233 3234 3235 3235 3236 3237 3237 3238 3238
3183 3185 3188 3190 3192 3194 3196 3199 3201 3203 3204 3206 3207 3208 3210 3211 3212 3214 3215 3217 3218 3219 3220 3221 3222 3223 3224 3225 3226 3228 3229 3230 3231 3231 3232 3233 3234 3235 3235 3236 3237 3237
3180 3182 3185 3187 3189 3191 3194 3196 3199 3201 3203 3204 3205 3207 3208 3209 3211 3212 3214 3215 3216 3217 3218 3219 3220 3222 3223 3224 3225 3226 3227 3228 3229 3230 3231 3232 3232 3233 3234 3234 3235 3236
3178 3180 3183 3185 3187 3189 3191 3194 3196 3199 3201 3202 3203 3205 3206 3208 3209 3211 3212 3213 3214 3216 3217 3218 3219 3220 3221 3222 3223 3224 3225 3226 3227 3228 3229 3230 3231 3231 3232 3233 3234 3234
3176 3178 3180 3182 3184 3186 3189 3192 3194 3197 3199 3200 3202 3204 3205 3206 3207 3209 3210 3211 3212 3213 3215 3216 3217 3218 3219 3220 3221 3222 3223 3224 3225 3226 3227 3228 3229 3230 3231 3231 3231 3232
3174 3176 3178 3180 3182 3184 3187 3190 3192 3194 3196 3198 3200 3201 3202 3204 3205 3207 3208 3209 3210 3211 3212 3214 3215 3216 3217 3218 3219 3220 3222 3223 3223 3224 3225 3226 3227 3228 3228 3229 3229 3230
3171 3174 3175 3177 3180 3182 3185 3187 3189 3192 3194 3196 3197 3199 3200 3202 3203 3204 3205 3206 3208 3209 3210 3212 3213 3214 3215 3216 3217 3218 3220 3221 3221 3222 3223 3224 3225 3225 3226 3227 3227 3228
3169 3171 3173 3175 3178 3180 3183 3185 3187 3189 3191 3193 3195 3197 3199 3200 3201 3202 3203 3204 3206 3207 3209 3210 3211 3212 3213 3214 3215 3216 3217 3218 3219 3220 3221 3222 3222 3223 3224 3225 3225 3226
3167 3169 3171 3174 3176 3179 3181 3183 3185 3187 3189 3191 3193 3195 3196 3198 3199 3200 3201 3203 3204 3205 3207 3208 3209 3210 3211 3212 3213 3214 3215 3216 3217 3218 3219 3220 3220 3221 3222 3222 3223 3224
3166 3168 3170 3172 3174 3177 3179 3181 3183 3185 3187 3189 3191 3192 3194 3195 3197 3198 3200 3201 3202 3203 3205 3206 3207 3207 3209 3210 3211 3212 3213 3214 3215 3216 3216 3217 3218 3219 3220 3220 3221 3222
3165 3167 3169 3171 3172 3174 3177 3179 3180 3182 3184 3186 3188 3190 3192 3193 3195 3196 3197 3198 3200 3201 3202 3203 3204 3205 3207 3208 3209 3210 3211 3212 3213 3214 3214 3215 3216 3217 3217 3218 3219 3219
3163 3165 3167 3169 3171 3173 3175 3177 3178 3180 3182 3184 3186 3187 3189 3191 3192 3193 3194 3196 3197 3199 3200 3200 3202 3203 3205 3207 3208 3209 3209 3210 3211 3212 3213 3213 3214 3214 3215 3216 3216 3217
3161 3163 3165 3167 3169 3171 3173 3174 3176 3178 3180 3181 3183 3185 3187 3189 3190 3191 3192 3193 3195 3196 3197 3198 3200 3202 3203 3205 3206 3207 3208 3208 3209 3210 3211 3211 3212 3212 3213 3213 3214 3215
3159 3161 3163 3165 3167 3169 3171 3173 3174 3176 3177 3179 3180 3182 3184 3186 3187 3188 3190 3191 3192 3194 3195 3196 3198 3200 3202 3203 3204 3205 3206 3207 3207 3208 3209 3209 3210 3210 3211 3212 3212 3212
3158 3159 3161 3163 3165 3167 3169 3170 3171 3173 3174 3176 3178 3180 3182 3183 3185 3186 3188 3189 3190 3191 3192 3194 3196 3198 3199 3201 3202 3203 3204 3205 3205 3206 3206 3207 3207 3208 3209 3209 3210 3210
3155 3157 3159 3161 3163 3165 3166 3167 3169 3170 3172 3174 3175 3177 3179 3180 3182 3184 3185 3187 3188 3189 3190 3192 3193 3195 3197 3198 3199 3201 3202 3203 3203 3203 3203 3203 3204 3205 3206 3206 3207 3207
3153 3155 3157 3159 3161 3162 3163 3165 3166 3168 3170 3171 3173 3174 3176 3178 3180 3181 3183 3184 3186 3187 3188 3189 3191 3193 3194 3195 3197 3198 3199 3199 3200 3200 3200 3200 3201 3202 3203 3204 3205 3205
3151 3153 3155 3157 3158 3160 3161 3162 3164 3166 3167 3169 3170 3172 3174 3176 3177 3179 3180 3182 3183 3185 3186 3187 3189 3190 3191 3193 3194 3195 3195 3196 3196 3197 3197 3198 3199 3200 3201 3202 3202 3202
3148 3150 3152 3154 3155 3157 3158 3160 3162 3164 3165 3167 3168 3169 3171 3173 3175 3176 3178 3179 3181 3182 3183 3185 3186 3188 3189 3190 3191 3192 3192 3193 3194 3194 3195 3196 3197 3198 3198 3199 3200 3200
3146 3147 3149 3151 3152 3154 3156 3158 3160 3162 3163 3164 3165 3167 3169 3171 3172 3174 3175 3176 3178 3180 3181 3183 3184 3185 3187 3188 3189 3189 3190 3191 3191 3191 3192 3193 3194 3195 3196 3196 3197 3198
3143 3144 3146 3147 3149 3150 3153 3155 3157 3159 3161 3162 3163 3165 3166 3168 3170 3171 3173 3174 3176 3177 3179 3181 3182 3183 3185 3186 3187 3187 3188 3189 3189 3189 3189 3190 3191 3192 3193 3193 3194 3194
3141 3142 3143 3144 3145 3147 3149 3152 3154 3156 3158 3159 3161 3162 3164 3165 3167 3168 3170 3172 3174 3175 3177 3178 3180 3181 3183 3184 3185 3185 3186 3187 3187 3186 3187 3188 3189 3189 3190 3190 3190 3191